This is the latest recevied weather packets stored in our database for station/object N9DMT-13. If no packets are shown the sender has not sent any weather packets the latest 10 day(s).
| Time | Temp. | Humidity | Pressure | Rain* | Wind** | Luminosity | Snow |
|---|---|---|---|---|---|---|---|
| 1778272220 | 22.22° C | 24% | 973.3 hPa | 0 mm | - | - | - |
| 1778271919 | 21.67° C | 28% | 973.4 hPa | 0 mm | - | - | - |
| 1778271618 | 21.67° C | 27% | 973.5 hPa | 0 mm | - | - | - |
| 1778271318 | 20.56° C | 27% | 973.4 hPa | 0 mm | - | - | - |
| 1778271017 | 20° C | 30% | 973.6 hPa | 0 mm | - | - | - |
| 1778270716 | 20.56° C | 25% | 973.8 hPa | 0 mm | - | - | - |
| 1778270415 | 21.11° C | 26% | 973.9 hPa | 0 mm | - | - | - |
| 1778270115 | 22.22° C | 26% | 973.8 hPa | 0 mm | - | - | - |
| 1778269814 | 21.67° C | 29% | 974.1 hPa | 0 mm | - | - | - |
| 1778269513 | 21.67° C | 26% | 974.2 hPa | 0 mm | - | - | - |
| 1778269212 | 22.22° C | 28% | 974.2 hPa | 0 mm | - | - | - |
| 1778268911 | 21.11° C | 26% | 974.2 hPa | 0 mm | - | - | - |
| 1778268611 | 22.22° C | 28% | 974.3 hPa | 0 mm | - | - | - |
| 1778268310 | 21.67° C | 27% | 974.5 hPa | 0 mm | - | - | - |
| 1778268009 | 21.67° C | 29% | 974.4 hPa | 0 mm | - | - | - |
| 1778267709 | 21.11° C | 27% | 974.5 hPa | 0 mm | - | - | - |
| 1778267408 | 22.22° C | 25% | 974.5 hPa | 0 mm | - | - | - |
| 1778267107 | 22.22° C | 24% | 974.6 hPa | 0 mm | - | - | - |
| 1778266806 | 22.22° C | 22% | 974.6 hPa | 0 mm | - | - | - |
| 1778266505 | 22.22° C | 25% | 974.5 hPa | 0 mm | - | - | - |
| 1778266204 | 21.67° C | 28% | 974.7 hPa | 0 mm | - | - | - |
| 1778265903 | 21.67° C | 24% | 974.8 hPa | 0 mm | - | - | - |
| 1778265603 | 21.67° C | 24% | 975 hPa | 0 mm | - | - | - |
| 1778265302 | 21.11° C | 28% | 974.9 hPa | 0 mm | - | - | - |
| 1778265001 | 21.11° C | 27% | 975 hPa | 0 mm | - | - | - |
* Rain latest hour (hover to see other rain measurements)
** Current wind speed in m/s (hover to see current wind gust speed)